Theta_e
307 307 308 309 308 308 308 308 308 309 310 310 311 312 312 310 313 317 316 314 315 315 316 318 319 319 318 318 318 318 319 320 319 320 320 319 319 320 319 319 319 320 320 319 318
309 309 309 308 307 307 307 308 309 309 310 311 312 314 314 314 318 316 314 315 314 315 317 318 318 318 319 319 318 320 320 319 318 319 319 319 319 319 319 319 319 319 319 318 319
308 309 309 308 307 307 308 309 310 310 311 312 315 316 315 314 318 317 315 315 314 316 316 317 317 319 319 319 319 319 320 319 318 319 319 318 318 318 318 319 318 318 318 319 318
306 308 308 308 308 308 308 309 310 311 312 313 316 316 313 318 318 316 315 315 315 316 316 317 319 319 319 318 318 318 318 319 319 318 318 318 318 318 317 318 317 317 318 318 319
307 308 308 309 308 308 309 310 311 312 312 312 316 315 318 318 317 315 315 315 316 316 317 318 319 319 318 318 319 319 318 318 317 317 317 317 318 317 317 317 317 318 318 318 318
306 308 309 309 308 308 309 310 311 312 312 312 318 315 318 317 315 315 315 316 316 317 318 318 319 319 319 318 319 318 318 318 317 317 317 317 318 316 317 318 318 318 318 318 319
304 308 309 309 309 309 309 310 311 311 311 312 315 318 317 316 316 315 316 316 315 316 318 317 318 319 319 319 318 318 318 317 317 317 317 317 316 317 317 318 318 318 319 320 321
302 308 310 310 310 311 311 310 310 311 311 311 313 321 317 318 317 316 316 316 315 315 316 316 317 319 319 318 317 317 318 317 318 317 317 317 317 318 318 318 318 318 320 322 323
303 307 310 310 312 312 313 313 310 310 310 313 318 320 318 316 316 316 316 316 315 316 316 315 318 318 318 317 318 318 317 318 318 318 317 318 318 318 318 318 319 319 323 323 323
304 306 309 311 312 314 316 315 316 314 314 314 317 319 317 317 316 316 316 316 316 317 317 317 317 318 318 318 318 318 318 318 318 318 318 318 318 319 319 319 318 320 323 323 325
304 307 310 311 314 315 316 317 320 322 319 320 320 318 317 318 317 316 316 317 317 319 318 317 318 319 319 318 318 318 318 319 319 318 318 319 319 319 319 319 318 322 323 324 324
305 309 310 312 315 316 318 319 318 318 319 317 317 318 317 318 319 317 316 318 318 319 319 319 320 319 318 318 318 319 319 319 318 318 318 319 320 320 318 318 321 322 323 323 323
306 309 311 315 316 318 318 317 316 316 323 319 318 318 318 318 318 318 317 317 317 318 318 319 318 317 317 318 318 319 319 318 318 318 319 319 319 319 317 318 321 321 322 323 324
308 311 314 316 318 318 318 316 316 316 326 318 318 319 319 318 317 315 316 317 317 318 318 319 318 317 318 318 318 318 318 317 318 319 320 318 319 319 317 319 320 321 323 323 324
308 312 315 316 319 318 316 316 316 320 331 320 320 317 316 317 316 317 315 317 317 318 318 319 318 318 318 318 317 318 318 318 318 320 319 318 319 319 317 318 320 318 321 323 321
310 311 314 318 319 315 315 317 321 332 329 320 318 316 317 318 319 318 318 317 317 318 318 318 317 317 318 317 318 317 318 320 320 318 319 319 317 316 317 319 318 317 319 322 321
313 312 315 316 319 315 316 321 329 328 321 318 318 318 319 319 319 318 318 318 319 319 320 319 318 317 317 318 318 319 320 322 319 319 318 318 318 319 318 317 317 317 320 321 321
316 313 316 317 318 317 319 324 324 320 320 317 318 319 320 319 319 319 319 320 319 319 320 321 321 318 317 317 318 319 320 317 320 318 318 318 318 320 318 319 319 320 320 320 319
317 321 320 317 316 316 320 323 322 320 319 319 319 320 320 318 319 319 319 319 320 319 321 321 321 318 317 317 318 319 319 318 319 319 321 318 317 317 317 318 319 319 318 318 318
321 322 319 315 314 320 321 321 321 319 319 318 321 320 321 320 319 320 319 319 320 319 320 320 322 318 317 317 317 318 317 319 321 324 320 317 317 316 317 316 317 316 317 317 317
319 325 317 314 317 325 325 323 320 318 319 320 319 319 319 319 319 319 320 320 319 320 319 319 319 318 318 317 316 316 317 317 318 318 321 321 317 316 316 316 317 316 316 317 317
319 323 315 315 321 320 321 317 314 318 318 319 319 319 319 320 320 320 321 320 318 318 319 318 318 320 317 315 315 314 315 316 324 321 320 324 325 316 317 317 318 317 317 317 317
317 317 313 315 321 320 318 318 317 318 318 319 320 320 319 320 325 320 320 319 317 317 318 316 319 321 316 316 315 315 314 314 315 317 320 323 319 315 317 318 318 319 318 318 318
316 316 314 314 314 317 317 317 317 316 317 317 318 318 319 319 319 319 318 316 316 315 315 315 319 318 319 316 315 316 314 315 316 323 319 317 315 316 316 318 318 318 316 315 316
312 314 311 313 314 316 316 317 317 318 317 317 318 317 317 318 317 315 315 314 313 312 315 317 321 315 315 314 314 315 315 314 315 316 320 317 317 316 319 317 317 317 317 315 315
313 312 311 311 313 314 313 318 316 316 314 315 315 316 314 314 314 315 313 314 314 313 313 314 317 316 318 314 314 315 314 313 313 315 315 316 317 318 317 317 315 315 314 314 314
309 310 312 309 311 312 313 313 312 313 314 315 315 313 313 313 312 311 312 313 313 314 315 317 319 320 317 314 314 317 313 313 313 314 317 319 318 316 316 316 316 315 314 313 313
Wind_Speed
6 6 6 6 6 6 5 4 4 6 6 5 6 8 7 8 9 5 14 6 6 7 3 2 5 5 4 5 3 2 4 5 4 5 5 4 3 5 2 5 7 7 8 10 12
6 6 6 6 6 6 5 5 6 6 5 5 7 6 6 8 7 15 8 10 11 6 3 2 7 6 4 3 2 2 2 5 5 4 2 2 3 4 2 1 4 7 9 12 11
6 5 5 6 6 6 5 6 6 6 5 7 7 3 1 1 3 10 9 10 10 8 4 3 4 2 7 5 4 3 7 5 6 4 3 2 1 3 5 2 7 12 14 14 13
6 5 5 6 6 6 6 6 6 6 6 8 6 2 2 5 2 5 9 8 10 8 2 4 3 3 4 6 5 9 6 4 5 3 3 1 4 4 4 6 8 12 13 12 11
6 5 5 5 5 5 5 5 5 4 5 8 6 3 1 6 8 4 8 7 6 8 9 5 5 3 4 5 5 6 4 2 4 3 2 2 5 5 5 5 9 11 12 12 11
4 3 4 4 4 4 4 4 3 3 4 8 7 4 3 9 3 4 5 5 8 9 12 10 5 7 6 4 4 3 1 4 1 2 4 7 9 6 2 6 10 11 10 8 9
3 2 2 3 4 3 3 3 2 1 3 6 6 2 4 8 2 1 2 3 4 4 7 8 5 5 5 5 2 1 7 7 2 3 3 12 12 12 2 9 11 10 9 8 7
3 2 2 3 3 2 1 2 3 1 2 4 3 2 6 3 1 2 3 5 4 2 5 3 4 7 2 3 5 3 5 5 5 3 4 8 11 4 4 12 13 8 5 6 8
3 3 3 2 1 3 3 3 3 2 1 2 2 6 8 3 4 3 2 4 3 6 4 3 2 2 5 4 7 3 6 7 7 5 8 8 16 6 13 14 10 6 3 5 8
5 4 5 3 2 4 4 4 3 1 1 1 2 5 5 4 3 2 1 2 3 2 4 2 2 3 2 5 4 8 10 9 11 8 12 15 16 16 14 13 8 4 4 6 7
7 5 5 4 4 4 4 2 5 5 2 4 4 2 5 1 1 3 0 2 1 2 4 3 3 7 6 5 5 7 10 13 12 11 11 13 18 18 17 10 6 3 4 6 8
8 5 5 4 4 6 4 3 5 4 2 2 1 3 2 3 2 3 2 3 2 3 1 5 6 5 3 4 8 9 11 12 10 6 13 16 24 19 10 1 1 3 4 7 8
8 5 4 5 8 8 9 6 5 2 3 4 2 1 1 4 2 3 4 2 4 3 3 7 5 2 4 9 11 10 10 12 13 17 17 15 19 2 7 4 3 1 3 6 7
7 5 3 4 3 1 3 7 4 4 5 6 6 4 3 1 3 4 2 4 3 6 4 4 4 5 9 11 8 14 7 9 15 16 15 16 9 11 5 8 6 3 5 6 8
4 3 3 1 2 2 5 7 2 3 4 6 6 3 1 3 3 4 1 4 8 5 5 4 6 10 11 7 6 11 9 14 18 21 16 16 7 5 3 10 11 5 5 5 8
3 3 2 2 2 3 7 1 4 5 3 6 4 3 5 2 2 2 1 2 2 6 5 11 3 6 5 3 5 9 13 21 11 8 10 6 6 8 5 7 10 11 4 4 7
3 4 2 2 4 8 5 5 5 5 4 6 3 2 2 2 3 2 3 1 5 4 2 9 1 2 4 8 7 8 14 9 7 8 10 3 9 14 16 9 9 8 6 4 10
3 4 6 7 6 7 4 5 6 2 1 3 1 3 4 1 2 2 4 3 2 3 8 3 3 1 3 8 11 14 6 7 11 13 19 18 9 5 5 5 5 3 4 7 12
5 4 3 11 6 6 6 6 2 1 0 2 3 6 5 3 4 3 1 1 2 3 5 7 4 4 11 12 10 3 7 8 12 18 16 12 11 11 5 5 6 8 5 11 14
2 3 9 15 7 5 5 4 3 2 4 3 4 2 3 1 4 2 2 2 2 1 3 4 9 4 2 7 12 11 9 7 7 7 14 15 22 15 8 12 5 11 8 12 13
1 3 12 12 4 5 2 3 3 4 7 4 3 4 5 4 5 4 1 5 2 2 4 8 4 5 11 9 12 9 11 11 10 8 14 16 9 17 22 19 11 10 13 18 12
4 1 15 9 3 1 1 3 2 3 5 2 3 3 4 1 5 4 3 3 3 3 8 5 6 11 17 12 4 7 9 10 9 14 12 14 18 22 12 17 8 10 15 17 10
3 3 10 8 2 3 2 2 3 2 4 3 1 4 2 2 3 4 2 5 4 5 5 5 4 8 7 6 6 7 9 13 15 13 17 15 15 19 15 8 14 18 14 18 6
3 2 4 5 3 4 3 1 2 4 3 2 2 1 3 4 3 5 5 2 2 9 2 5 5 10 11 16 14 17 16 14 14 9 17 19 24 22 15 18 17 15 11 13 12
5 3 3 4 4 4 3 2 3 0 1 2 3 3 3 4 7 6 3 7 7 2 2 3 7 12 15 16 17 19 19 16 16 17 15 22 21 19 13 11 15 14 10 8 14
4 4 1 1 4 5 1 1 3 1 3 1 3 2 6 6 6 13 12 10 8 3 2 4 4 9 14 16 11 17 20 19 14 11 15 17 17 7 10 11 12 14 14 15 17
3 0 3 3 1 4 2 2 1 4 2 2 4 8 8 6 7 13 13 13 13 11 7 2 3 5 8 7 17 12 5 3 11 13 10 14 14 15 12 12 15 16 17 19 17
Wind_Direction
60 64 56 42 40 34 34 47 77 101 95 71 34 41 83 110 98 82 55 14 354 3 16 229 153 138 142 102 60 275 221 157 134 186 104 47 331 38 64 16 48 45 25 1 350
48 54 50 40 32 33 48 77 101 102 87 49 25 50 92 123 127 69 27 21 18 25 10 202 126 178 110 103 60 279 154 81 70 72 23 41 338 5 294 353 31 6 1 353 349
46 48 44 40 39 41 65 93 108 98 71 32 10 36 56 265 131 50 23 25 29 31 41 102 132 129 104 82 29 14 91 127 113 47 355 40 125 6 319 280 8 341 335 333 330
40 47 41 37 43 62 82 99 101 92 61 36 21 14 341 273 71 35 17 35 35 30 86 155 183 99 65 82 76 111 83 47 66 95 171 165 329 282 314 345 342 328 326 313 313
32 47 47 43 52 80 102 110 107 87 55 26 26 141 218 124 82 33 28 21 41 51 58 88 119 129 90 105 109 100 94 107 110 143 163 277 293 303 239 360 324 328 315 313 312
25 46 54 58 76 97 112 124 127 95 38 23 33 102 228 94 82 20 8 27 36 40 48 55 80 75 93 90 20 54 51 160 88 50 192 308 301 236 156 336 322 326 317 315 315
32 63 76 91 99 97 113 150 157 81 15 15 23 112 83 91 140 31 66 72 46 43 64 51 72 237 156 136 52 183 213 182 211 330 301 326 263 210 339 323 319 332 323 330 347
38 124 108 111 107 91 122 199 200 210 322 348 14 238 92 124 143 143 127 106 78 78 89 74 118 100 349 116 180 229 232 272 139 296 114 308 291 334 333 320 318 329 321 329 349
48 140 136 129 79 332 284 208 197 226 290 340 269 268 121 145 143 68 29 44 89 118 107 126 190 53 187 248 204 190 322 321 325 304 307 308 299 295 308 315 321 303 340 346 347
43 138 139 134 34 11 105 142 156 154 268 269 254 210 170 94 61 344 14 21 50 176 179 193 193 186 107 340 357 334 324 316 310 328 314 300 290 305 305 310 307 291 347 5 11
42 120 132 118 60 67 131 219 209 181 207 1 63 29 117 80 232 146 194 221 279 64 45 88 220 48 42 30 352 314 307 304 309 339 311 302 298 300 304 294 258 330 349 10 9
43 107 121 99 70 80 67 50 36 -0 171 84 281 277 268 318 252 162 263 258 300 25 214 223 87 69 18 335 319 311 301 303 314 322 316 304 299 296 297 286 259 339 354 357 357
51 94 111 117 103 71 70 44 321 229 262 102 116 166 92 214 15 63 250 323 299 267 337 313 76 105 305 318 315 309 308 320 315 313 287 288 290 239 173 225 176 356 329 347 357
54 95 97 125 148 71 70 348 322 218 213 131 154 116 169 259 159 354 299 295 223 318 318 287 75 269 301 302 315 302 16 301 296 305 303 317 291 255 199 216 219 304 321 343 351
47 119 83 108 66 351 340 324 194 235 200 146 124 95 180 285 350 103 30 225 280 295 263 23 293 301 299 333 313 305 319 294 290 295 294 278 239 91 142 238 221 356 334 336 360
58 145 136 69 80 18 335 264 211 227 153 145 141 174 197 98 92 88 171 239 314 280 251 282 331 279 331 302 288 313 289 294 274 264 259 77 279 296 324 250 285 319 328 330 347
68 126 111 51 3 325 325 220 229 272 154 153 142 218 139 136 155 8 347 312 305 294 210 311 244 151 273 283 204 260 315 314 292 268 299 85 271 273 297 314 287 307 328 322 339
95 124 89 39 330 328 267 229 250 94 112 122 215 178 232 331 157 316 307 304 113 321 303 334 215 253 116 313 311 295 299 292 301 309 305 305 273 45 0 330 323 320 302 314 336
124 110 61 346 337 317 254 238 41 155 48 253 208 238 169 179 308 290 337 338 52 358 339 310 229 265 268 286 285 73 256 358 286 278 272 274 280 219 249 233 246 274 325 327 337
96 157 33 340 321 276 251 47 117 58 337 244 264 263 240 228 289 280 307 105 115 21 357 354 294 301 30 290 254 250 334 284 259 295 298 306 306 294 6 330 266 316 325 323 324
9 203 5 345 311 246 289 74 121 57 354 301 282 263 268 287 277 291 284 111 32 122 313 307 254 277 275 271 301 280 249 234 260 284 288 296 286 332 327 306 312 299 330 324 329
324 204 355 344 251 349 61 20 303 335 4 312 279 294 279 254 277 273 280 18 46 348 323 14 296 286 289 310 344 257 278 295 277 285 290 292 282 287 338 344 282 356 299 316 312
15 3 4 332 6 60 83 121 38 355 41 356 87 3 341 279 293 264 264 89 38 21 3 358 269 304 293 156 169 245 298 296 281 285 276 278 280 300 321 241 301 339 352 333 296
327 353 50 51 47 335 348 353 185 42 68 42 35 330 298 269 248 278 260 99 -0 329 38 231 259 244 268 304 312 292 288 284 279 271 279 275 296 306 316 342 329 343 335 321 320
3 55 15 346 53 357 306 302 291 147 46 356 142 54 350 280 293 275 284 296 303 41 182 281 257 271 275 287 286 284 285 284 277 278 275 288 289 309 344 336 311 318 289 292 285
5 340 224 301 300 288 177 71 321 37 324 112 280 348 304 272 289 294 308 299 281 224 258 284 275 290 286 277 285 291 286 278 270 267 284 297 299 353 327 317 327 328 322 308 308
36 113 279 125 249 278 50 50 345 325 128 333 333 315 289 305 318 298 289 276 264 263 276 276 286 298 273 337 311 285 312 314 300 286 307 302 303 328 323 316 320 312 309 306 309